Daytona Beach, FL

9:36 PM EST on February 21, 2017 (GMT -0500)
Daytona Beach International

Weather History for KDAB - July, 2013

Change the Weather History Date:

Monday, July 15, 2013

  Actual Average Record
Temperature  
Mean Temperature 79 °F 82 °F  
Max Temperature 86 °F 90 °F 102 °F (1981)
Min Temperature 71 °F 73 °F 67 °F (1974)
Degree Days  
Heating Degree Days 0 0  
Month to date heating degree days 0 0  
Since 1 June heating degree days 0 0  
Since 1 July heating degree days 0 0  
Cooling Degree Days 14 17  
Month to date cooling degree days 240 244  
Year to date cooling degree days 1380 1292  
Since 1 June cooling degree days 728 691  
Growing Degree Days 28 (Base 50)    
Moisture  
Dew Point 73 °F    
Average Humidity 82    
Maximum Humidity 93    
Minimum Humidity 70    
Precipitation  
Precipitation 0.10 in 0.19 in 2.00 in (1935)
Month to date precipitation 1.63 2.86  
Year to date precipitation 23.86 23.76  
Sea Level Pressure  
Sea Level Pressure 30.12 in    
Wind  
Wind Speed 6 mph (ENE)    
Max Wind Speed 17 mph    
Max Gust Speed 23 mph    
Visibility 10 miles    
Events Rain    
T = Trace of Precipitation, MM = Missing Value Source: NWS Daily Summary

Daily Weather History Graph

Daily Weather History Graph

Search for Another Location

Airport or City:

Trip Planner

Search our weather history database for the weather conditions in past years. The results will help you decide how hot, cold, wet, or windy it might be!

Date:

Astronomy

Jul. 15, 2013 Rise Set
Actual Time 6:35 AM EDT 8:24 PM EDT
Civil Twilight 6:08 AM EDT 8:51 PM EDT
Nautical Twilight 5:36 AM EDT 9:23 PM EDT
Astronomical Twilight 5:02 AM EDT 9:57 PM EDT
Moon 1:14 PM EDT (7/15) 12:12 AM EDT (7/15)
Length of Visible Light 14h 42m
Length of Day
13h 49m
Waxing Crescent, 45% of the Moon is Illuminated
Jul 15
Waxing Crescent
Jul 15
First Quarter
Jul 22
Full
Jul 29
Last Quarter
Aug 6
New

Hourly Weather History & Observations

Time (EDT) Temp. Heat Index Dew Point Humidity Pressure Visibility Wind Dir Wind Speed Gust Speed Precip Events Conditions
12:53 AM 75.0 °F - 72.0 °F 90% 30.13 in 10.0 mi Calm Calm - N/A   Scattered Clouds
1:53 AM 75.0 °F - 72.0 °F 90% 30.12 in 10.0 mi Calm Calm - N/A   Scattered Clouds
2:53 AM 73.9 °F - 71.1 °F 91% 30.12 in 10.0 mi Calm Calm - N/A   Partly Cloudy
3:53 AM 73.0 °F - 70.0 °F 90% 30.11 in 10.0 mi Calm Calm - N/A   Clear
4:53 AM 72.0 °F - 70.0 °F 93% 30.11 in 10.0 mi Calm Calm - N/A   Clear
5:53 AM 71.1 °F - 69.1 °F 93% 30.11 in 10.0 mi Calm Calm - N/A   Scattered Clouds
6:53 AM 73.0 °F - 70.0 °F 90% 30.11 in 10.0 mi Calm Calm - N/A   Scattered Clouds
7:53 AM 77.0 °F - 72.0 °F 84% 30.12 in 10.0 mi NNW 4.6 mph - N/A   Mostly Cloudy
8:53 AM 81.0 °F 85.8 °F 73.0 °F 77% 30.14 in 10.0 mi North 4.6 mph - N/A   Scattered Clouds
9:53 AM 81.0 °F 85.8 °F 73.0 °F 77% 30.14 in 10.0 mi North 6.9 mph - N/A   Scattered Clouds
10:53 AM 79.0 °F - 73.9 °F 84% 30.15 in 5.0 mi ENE 9.2 mph - 0.03 in Rain Light Rain
11:53 AM 82.0 °F 88.6 °F 75.0 °F 79% 30.14 in 10.0 mi NE 8.1 mph - 0.05 in   Mostly Cloudy
12:53 PM 82.9 °F 89.4 °F 73.9 °F 74% 30.13 in 10.0 mi NE 8.1 mph - N/A   Mostly Cloudy
1:53 PM 84.9 °F 92.1 °F 73.9 °F 69% 30.12 in 10.0 mi ENE 12.7 mph - N/A   Mostly Cloudy
2:53 PM 82.9 °F 88.8 °F 73.0 °F 72% 30.11 in 10.0 mi NE 12.7 mph 19.6 mph N/A   Mostly Cloudy
3:53 PM 82.9 °F 90.2 °F 75.0 °F 77% 30.10 in 10.0 mi ENE 15.0 mph - 0.02 in   Mostly Cloudy
4:53 PM 84.0 °F 91.2 °F 73.9 °F 72% 30.09 in 10.0 mi ENE 13.8 mph - N/A   Mostly Cloudy
5:53 PM 82.0 °F 87.9 °F 73.9 °F 76% 30.08 in 10.0 mi East 9.2 mph - N/A   Mostly Cloudy
6:53 PM 82.0 °F 87.4 °F 73.0 °F 74% 30.08 in 10.0 mi East 11.5 mph - N/A   Mostly Cloudy
7:53 PM 81.0 °F 86.2 °F 73.9 °F 79% 30.10 in 10.0 mi East 9.2 mph - N/A   Mostly Cloudy
8:53 PM 80.1 °F 84.2 °F 73.0 °F 79% 30.11 in 10.0 mi East 4.6 mph - N/A   Mostly Cloudy
9:53 PM 80.1 °F 84.2 °F 73.0 °F 79% 30.14 in 10.0 mi East 5.8 mph - N/A   Scattered Clouds
10:53 PM 79.0 °F - 72.0 °F 79% 30.16 in 10.0 mi East 4.6 mph - N/A   Scattered Clouds
11:53 PM 78.1 °F - 73.0 °F 84% 30.16 in 10.0 mi East 3.5 mph - 0.00 in   Scattered Clouds